Tracking 30074 objects as of 13-Jan-2025
HD Live streaming from Space Station
objects crossing your sky now

STARLINK-31728

Track STARLINK-31728 now!
10-day predictions


NORAD ID: 59496
Int'l Code: 2024-071N
Perigee: 449.6 km
Apogee: 452.4 km
Inclination: 43.0 °
Period: 93.5 minutes
Semi major axis: 6822 km
RCS: Unknown
Launch date: April 13, 2024
Source: United States (US)
Launch site: AIR FORCE EASTERN TEST RANGE (AFETR)
Your satellite tracking list
Your tracking list is empty




NASA's NSSDC Master Catalog

Two Line Element Set (TLE):
1 59496U 24071N   25012.93605691  .00006610  00000-0  16512-3 0  9997
2 59496  43.0032 212.6513 0002058 267.9341  92.1280 15.40746307 43628
Source of the keplerian elements: AFSPC